Regional Weather Roundup
Issued by NWS Sioux Falls, SD

Home | Current Version | Previous Version | Text Only | Print | Product List | Glossary On
Versions: 1 2 3 4 5 6 7 8 9 10 11 12 13 14 15 16 17 18 19 20 21 22 23 24 25 26 27 28 29 30 31 32 33 34 35 36 37 38 39 40 41 42 43 44 45 46 47 48 49 50
000
ASUS43 KFSD 262010
RWRFSD

WEATHER ROUNDUP FOR SE SOUTH DAKOTA/SW MINNESOTA/NW IOWA
NATIONAL WEATHER SERVICE SIOUX FALLS SD
200 PM CST SUN FEB 26 2017

NOTE: "FAIR" INDICATES FEW OR NO CLOUDS BELOW 12,000 FEET WITH NO
SIGNIFICANT WEATHER AND OR OBSTRUCTIONS TO VISIBILITY.


SDZ038>040-050-052>070-262100-
SOUTHEAST SOUTH DAKOTA

CITY           SKY/WX    TMP DP  RH WIND       PRES   REMARKS
BROOKINGS      SUNNY     37  21  52 W14       29.81F
CHAMBERLAIN    PTSUNNY   42  17  35 SW7       29.81F
HURON          SUNNY     38  22  52 SW9       29.83F
MADISON        FAIR      36  23  60 SW14G20   29.83R
MITCHELL       MOSUNNY   39  26  59 S14       29.86S
SIOUX FALLS    MOSUNNY   33  26  75 SW9       29.87S WCI  25
WINNER         FAIR      38  23  55 SW12      29.83F
YANKTON        SUNNY     36  21  55 E3        29.89S
$$

MNZ071-072-080-081-089-090-097-098-262100-
SOUTHWEST MINNESOTA

CITY           SKY/WX    TMP DP  RH WIND       PRES   REMARKS
FAIRMONT       SUNNY     34  25  69 SW10      29.86S WCI  26
JACKSON        SUNNY     34  27  75 W13       29.86R WCI  25
LUVERNE        SUNNY     34  27  75 W10       29.87S WCI  26
MARSHALL       SUNNY     32  21  64 NW7       29.85S WCI  26
MONTEVIDEO     SUNNY     32  19  59 N6        29.88R WCI  26
PIPESTONE      MOSUNNY   37  19  48 W14       29.82S
REDWOOD FALLS  SUNNY     34  16  47 NW10      29.86R WCI  26
TRACY          SUNNY     36  26  67 N7        29.84S
WINDOM         MOSUNNY   39  25  56 W15       29.84R
WORTHINGTON    MOSUNNY   34  27  75 W12       29.85F WCI  25
$$

IAZ001>003-012>014-020>022-031-032-NEZ013-014-SDZ071-262100-
NORTHWEST IOWA

CITY           SKY/WX    TMP DP  RH WIND       PRES   REMARKS
CHEROKEE       SUNNY     32  24  73 W8        29.91S WCI  25
DENISON        SUNNY     34  19  55 SW6       29.91S WCI  29
ESTHERVILLE    SUNNY     32  27  81 SW10      29.86S WCI  24
LE MARS        SUNNY     34  23  64 W9        29.92S WCI  26
SHELDON        SUNNY     32  30  93 SW10      29.87R WCI  24
SIOUX CITY     SUNNY     35  24  64 W7        29.93S WCI  29
SPENCER        SUNNY     33  26  75 SW10      29.88S WCI  25
STORM LAKE     SUNNY     28  21  74 W12       29.90R WCI  18
$$

ABBREVIATIONS USED IN REMARKS
   TC - TEMPERATURE IN CELSIUS
  WCI - WIND CHILL INDEX
   HX - HEAT INDEX
  VSB - VISIBILITY





USA.gov is the U.S. government's official web portal to all federal, state and local government web resources and services.